Gainesville, FL

10:07 PM EST on December 10, 2019 (GMT -0500)
Gainesville Regional

Weather History for KGNV - November, 2019

Change the Weather History Date:

Sunday, November 17, 2019

  Actual Average Record
Temperature  
Mean Temperature 50 °F 62 °F  
Max Temperature 55 °F 74 °F 89 °F (1957)
Min Temperature 46 °F 51 °F 26 °F (1940)
Degree Days  
Heating Degree Days 14 5  
Month to date heating degree days 84 58  
Since 1 July heating degree days 84 85  
Cooling Degree Days 0 2  
Month to date cooling degree days 36 47  
Year to date cooling degree days 3394 2597  
Moisture  
Dew Point 45 °F    
Average Humidity 84    
Maximum Humidity 97    
Minimum Humidity 72    
Precipitation  
Precipitation 0.00 in 0.07 in 2.29 in (1951)
Month to date precipitation 1.51 1.19  
Year to date precipitation 43.34 44.06  
Snow  
Snow 0.00 in 0.00 in 0.00 in ()
Month to date snowfall 0.0 0.0  
Since 1 July snowfall 0.0 0.0  
Since 1 September snowfall 0.0 0.0  
Snow Depth 0.00 in    
Sea Level Pressure  
Sea Level Pressure 29.96 in    
Wind  
Wind Speed 5 mph ()    
Max Wind Speed 14 mph    
Max Gust Speed 19 mph    
Visibility 9.5 miles    
Events      
T = Trace of Precipitation, MM = Missing Value Source: Averaged Metar Reports

Daily Weather History Graph

Daily Weather History Graph

Search for Another Location

Airport or City:

Astronomy

Nov. 17, 2019 Rise Set
Actual Time 6:55 AM EST 5:32 PM EST
Civil Twilight 6:29 AM EST 5:58 PM EST
Nautical Twilight 6:00 AM EST 6:26 PM EST
Astronomical Twilight 5:32 AM EST 6:55 PM EST
Moon 10:13 PM EST (11/17) 11:33 AM EST (11/17)
Length of Visible Light 11h 28m
Length of Day
10h 37m
Waning Gibbous, 73% of the Moon is Illuminated
Nov 17
Waning Gibbous
Nov 19
Last Quarter
Nov 26
New
Dec 4
First Quarter
Dec 12
Full

Hourly Weather History & Observations

Time (EST) Temp. Dew Point Humidity Pressure Visibility Wind Dir Wind Speed Gust Speed Precip Events Conditions
12:19 AM 48.9 °F 44.1 °F 83% 29.99 in 10.0 mi North 6.9 mph - N/A   Overcast
12:53 AM 48.9 °F 44.1 °F 83% 29.98 in 10.0 mi North 9.2 mph - N/A   Overcast
1:53 AM 50.0 °F 44.1 °F 80% 29.97 in 10.0 mi North 9.2 mph - N/A   Overcast
3:19 AM 48.9 °F 44.1 °F 83% 29.96 in 10.0 mi North 9.2 mph - N/A   Overcast
3:38 AM 48.9 °F 44.1 °F 83% 29.96 in 10.0 mi North 6.9 mph - N/A   Overcast
3:53 AM 48.9 °F 44.1 °F 83% 29.97 in 10.0 mi North 8.1 mph - N/A   Overcast
4:53 AM 48.9 °F 44.1 °F 83% 29.98 in 10.0 mi NNE 4.6 mph - N/A   Overcast
6:53 AM 48.0 °F 44.1 °F 86% 30.01 in 10.0 mi North 11.5 mph - N/A   Overcast
7:53 AM 48.0 °F 43.0 °F 83% 30.01 in 10.0 mi North 9.2 mph - N/A   Overcast
8:53 AM 48.9 °F 43.0 °F 80% 30.02 in 10.0 mi North 8.1 mph - N/A   Overcast
9:53 AM 50.0 °F 44.1 °F 80% 30.02 in 10.0 mi NNW 8.1 mph - N/A   Overcast
10:53 AM 50.0 °F 44.1 °F 80% 30.01 in 10.0 mi NNW 10.4 mph - N/A   Overcast
11:53 AM 51.1 °F 44.1 °F 77% 29.99 in 10.0 mi North 5.8 mph - N/A   Overcast
12:53 PM 52.0 °F 45.0 °F 77% 29.96 in 10.0 mi North 9.2 mph - N/A   Overcast
1:31 PM 53.1 °F 45.0 °F 74% 29.94 in 10.0 mi North 5.8 mph - N/A   Overcast
1:53 PM 54.0 °F 46.0 °F 75% 29.94 in 10.0 mi Variable 4.6 mph - N/A   Overcast
2:53 PM 55.0 °F 46.0 °F 72% 29.93 in 10.0 mi North 4.6 mph - N/A   Overcast
3:53 PM 55.0 °F 46.0 °F 72% 29.92 in 10.0 mi North 5.8 mph - N/A   Overcast
4:49 PM 53.6 °F 46.4 °F 77% 29.92 in 10.0 mi West 4.6 mph - N/A   Scattered Clouds
4:53 PM 53.1 °F 46.9 °F 80% 29.93 in 10.0 mi West 4.6 mph - N/A   Partly Cloudy
5:53 PM 50.0 °F 46.9 °F 89% 29.92 in 10.0 mi Calm Calm - N/A   Clear
6:53 PM 48.9 °F 46.9 °F 93% 29.92 in 10.0 mi Calm Calm - N/A   Clear
9:53 PM 46.0 °F 45.0 °F 96% 29.94 in 8.0 mi Calm Calm - N/A   Clear
10:14 PM 46.9 °F 45.0 °F 93% 29.94 in 8.0 mi Calm Calm - N/A   Mostly Cloudy
10:21 PM 46.9 °F 45.0 °F 93% 29.94 in 8.0 mi Calm Calm - N/A   Scattered Clouds
10:28 PM 46.9 °F 45.0 °F 93% 29.94 in 8.0 mi Calm Calm - N/A   Mostly Cloudy
10:44 PM 46.9 °F 45.0 °F 93% 29.94 in 9.0 mi Calm Calm - N/A   Scattered Clouds
10:51 PM 46.4 °F 44.6 °F 93% 29.94 in 8.0 mi Calm Calm - N/A   Mostly Cloudy
11:41 PM 46.9 °F 46.0 °F 97% 29.92 in 8.0 mi Calm Calm - N/A   Scattered Clouds
11:53 PM 46.9 °F 46.0 °F 97% 29.93 in 8.0 mi Calm Calm - N/A   Scattered Clouds